KA3ZXO Weather Reports


time (UTC)temp
F
wind
direction
speed
knots
gust
knots
rain 1hr
in
rain 24hr
in
rain mn
in
humidity
%
barometer
mb
20260507085725 57 155 0.0 0.0 0.00 0.02 0.02 87 1010.9
20260507084724 58 228 0.0 0.9 0.00 0.02 0.02 88 1010.6
20260507083724 58 198 0.0 0.0 0.00 0.02 0.02 87 1010.9
20260507082722 58 358 1.7 1.7 0.00 0.02 0.02 90 1010.8
20260507081721 58 231 0.9 0.9 0.00 0.02 0.02 90 1010.6
20260507080719 58 173 0.0 0.0 0.00 0.02 0.02 90 1010.4
20260507075717 58 228 0.0 0.0 0.00 0.02 0.02 89 1010.5
20260507074715 58 221 0.0 0.9 0.00 0.02 0.02 90 1010.4
20260507073710 58 272 0.9 1.7 0.00 0.02 0.02 92 1010.4
20260507072710 59 343 2.6 2.6 0.00 0.02 0.02 94 1010.6
20260507071711 59 317 0.9 0.9 0.00 0.02 0.02 95 1010.2
20260507070710 59 282 0.9 0.9 0.00 0.02 0.02 95 1010.3
20260507065709 60 322 0.0 0.9 0.00 0.02 0.02 96 1009.4
20260507064703 60 251 0.9 0.9 0.00 0.02 0.02 96 1009.2
20260507063659 61 244 0.0 0.0 0.00 0.02 0.02 96 1009.0
20260507062658 61 247 0.0 0.0 0.00 0.02 0.02 95 1008.7
20260507061654 62 206 0.0 0.0 0.00 0.02 0.02 95 1009.0
20260507060649 62 213 0.0 0.0 0.07 0.02 0.02 94 1009.2
20260507055647 63 228 0.0 0.0 0.00 0.01 0.01 93 1009.5
20260507054645 63 192 0.0 0.0 0.00 0.01 0.01 93 1009.4
20260507053640 64 227 0.0 0.0 0.07 0.01 0.01 92 1009.6
20260507052636 64 220 0.0 0.0 0.00 0.00 0.00 93 1009.7
20260507051636 64 209 0.0 0.0 0.00 0.00 0.00 94 1009.7
20260507050635 63 215 0.0 0.0 0.00 0.00 0.00 96 1009.8
20260507045634 63 199 0.0 0.0 0.00 0.00 0.00 95 1009.5
20260507044634 63 199 0.0 0.0 0.00 0.00 0.00 95 1009.6
20260507043633 63 199 0.0 0.0 0.00 0.00 0.00 95 1009.6
20260507042632 64 189 0.0 0.0 0.00 0.00 0.00 94 1009.5
20260507041630 64 189 0.0 0.0 0.00 0.00 0.00 94 1009.3
20260507040630 64 183 0.0 0.0 0.00 0.00 0.00 94 1009.3
20260507035628 64 183 0.0 0.0 0.00 0.07 0.07 94 1009.4
20260507034627 64 183 0.0 0.0 0.00 0.07 0.07 94 1009.4
20260507033623 63 206 0.0 0.0 0.00 0.07 0.07 95 1009.8
20260507032623 64 207 0.0 0.0 0.00 0.07 0.07 94 1009.4
20260507031621 64 204 0.0 0.0 0.00 0.07 0.07 93 1009.2
20260507030620 64 204 0.0 0.0 0.00 0.07 0.07 92 1009.1
20260507025615 64 181 0.0 0.0 0.00 0.07 0.07 92 1008.5
20260507024610 65 177 0.0 0.0 0.00 0.07 0.07 91 1008.7
20260507023608 65 176 0.0 0.0 0.00 0.07 0.07 90 1008.9
20260507022603 65 183 0.0 0.0 0.00 0.07 0.07 90 1009.3
20260507021600 65 183 0.0 0.0 0.00 0.07 0.07 91 1009.4
20260507020555 65 197 0.0 0.0 0.00 0.07 0.07 91 1009.6
20260507015555 65 196 0.0 0.0 0.00 0.07 0.07 90 1009.4
20260507014555 65 196 0.0 0.0 0.00 0.07 0.07 90 1009.1
20260507013553 66 170 0.0 0.0 0.00 0.07 0.07 88 1009.2
20260507012548 66 173 0.0 0.0 0.00 0.07 0.07 87 1009.1
20260507011547 66 173 0.0 0.0 0.00 0.07 0.07 86 1008.9
20260507010544 67 188 0.0 0.0 0.00 0.07 0.07 86 1009.1
20260507005538 67 181 0.0 0.0 0.00 0.07 0.07 86 1009.1
20260507004537 67 182 0.0 0.0 0.00 0.07 0.07 85 1009.0
20260507003536 67 173 0.0 0.0 0.00 0.07 0.07 85 1009.1
20260507002534 68 171 0.0 0.0 0.00 0.07 0.07 85 1009.2
20260507001532 68 183 0.0 0.0 0.00 0.07 0.07 84 1009.1
20260507000532 68 188 0.0 0.0 0.00 0.07 0.07 83 1008.6
20260506235531 69 169 0.0 0.0 0.00 0.07 0.07 82 1008.6
20260506234530 69 201 0.0 0.0 0.00 0.07 0.07 82 1008.6
20260506233530 69 185 0.0 0.0 0.00 0.07 0.07 81 1008.7
20260506232529 69 170 0.0 0.0 0.00 0.07 0.07 81 1008.6
20260506231528 69 169 0.0 0.0 0.00 0.07 0.07 80 1008.5
20260506230527 70 176 0.0 0.0 0.00 0.07 0.07 80 1008.3
20260506225527 70 190 0.0 0.0 0.00 0.07 0.07 79 1008.5
20260506224525 70 177 0.0 0.0 0.00 0.07 0.07 79 1008.5
20260506223523 70 184 0.0 0.0 0.00 0.07 0.07 79 1008.3
20260506222522 70 185 0.0 0.0 0.00 0.07 0.07 78 1008.6
20260506221521 71 129 0.0 0.0 0.00 0.07 0.07 78 1008.6
20260506220520 71 160 0.0 0.0 0.00 0.07 0.07 77 1008.5
20260506215519 71 233 0.0 0.9 0.00 0.07 0.07 77 1008.7
20260506214517 70 140 0.9 1.7 0.00 0.07 0.07 77 1008.6
20260506213513 70 180 0.9 0.9 0.00 0.07 0.07 79 1008.6
20260506212511 70 168 0.9 1.7 0.00 0.07 0.07 77 1008.7
20260506211509 70 224 0.0 0.0 0.00 0.07 0.07 77 1008.7
20260506210508 70 218 1.7 1.7 0.00 0.07 0.07 78 1008.7
20260506205508 69 219 0.9 1.7 0.00 0.07 0.07 79 1008.4
20260506204508 69 217 0.0 0.9 0.00 0.07 0.07 82 1008.7
20260506203502 68 236 0.9 0.9 0.00 0.07 0.07 83 1008.7
20260506202502 68 210 0.0 0.0 0.00 0.07 0.07 84 1008.7
20260506201502 68 171 0.0 0.9 0.00 0.07 0.07 83 1008.7
20260506200500 68 178 1.7 1.7 0.00 0.07 0.07 83 1008.6
20260506195500 68 158 0.0 0.0 0.00 0.07 0.07 84 1008.8
20260506194459 68 18 2.6 3.5 0.00 0.07 0.07 83 1009.0
20260506193500 68 210 0.9 0.9 0.00 0.07 0.07 82 1009.5
20260506192459 68 241 0.0 0.9 0.00 0.07 0.07 82 1009.2
20260506191458 68 126 0.0 0.0 0.00 0.07 0.07 83 1009.5
20260506190457 68 203 0.0 0.0 0.00 0.07 0.07 82 1009.5
20260506185457 68 139 0.0 0.0 0.00 0.07 0.07 82 1009.5
20260506184457 68 210 0.0 0.9 0.00 0.07 0.07 83 1009.7
20260506183455 68 169 0.0 0.9 0.00 0.07 0.07 83 1009.8
20260506182455 68 319 0.9 0.9 0.00 0.07 0.07 84 1010.2
20260506181451 67 191 0.0 0.0 0.00 0.07 0.07 85 1009.9
20260506180449 66 185 0.0 0.0 0.00 0.07 0.07 87 1009.9
20260506175449 66 196 0.0 0.9 0.00 0.07 0.07 87 1010.1
20260506174450 66 216 0.9 0.9 0.00 0.07 0.07 87 1010.3
20260506173449 65 178 0.0 0.9 0.00 0.07 0.07 89 1010.3
20260506172450 65 126 0.0 0.9 0.00 0.07 0.07 91 1010.2
20260506171449 64 174 1.7 1.7 0.00 0.07 0.07 92 1010.4
20260506170449 64 172 0.9 0.9 0.00 0.07 0.07 93 1010.5
20260506165446 63 238 0.9 1.7 0.00 0.07 0.07 93 1010.3
20260506164444 63 188 0.0 0.0 0.00 0.07 0.07 95 1010.7
20260506163443 62 152 0.0 0.0 0.00 0.07 0.07 96 1010.7
20260506162442 62 203 0.9 0.9 0.00 0.07 0.07 96 1010.5
20260506161437 62 156 0.9 0.9 0.05 0.07 0.07 95 1010.7
20260506160437 62 198 0.9 0.9 0.07 0.06 0.06 95 1010.8
20260506155434 62 172 0.0 0.0 0.05 0.05 0.05 94 1011.2
20260506153605 63 217 0.0 0.9 0.05 0.03 0.03 91 1011.4
20260506152604 64 157 0.0 0.0 0.00 0.02 0.02 89 1011.3
20260506151600 64 160 0.9 0.9 0.07 0.02 0.02 87 1011.6
20260506150600 64 151 0.9 0.9 0.00 0.01 0.01 86 1011.4
20260506145559 64 185 0.0 0.0 0.00 0.01 0.01 88 1011.6
20260506144559 64 194 0.0 0.0 0.00 0.01 0.01 89 1011.8
20260506143554 64 183 0.0 0.0 0.00 0.01 0.01 88 1011.6
20260506142550 64 157 0.0 0.0 0.05 0.01 0.01 86 1011.5
20260506141545 65 206 0.0 0.9 0.00 0.00 0.00 83 1011.5
20260506140540 66 226 0.9 0.9 0.00 0.00 0.00 79 1011.5
20260506135540 67 158 0.0 0.0 0.00 0.00 0.00 74 1011.5
20260506134539 67 163 0.0 0.9 0.00 0.00 0.00 73 1011.8
20260506133538 67 122 0.9 0.9 0.00 0.00 0.00 71 1011.7
20260506132538 67 219 0.0 0.9 0.00 0.00 0.00 70 1011.5
20260506131538 67 180 0.0 0.0 0.00 0.00 0.00 69 1011.6
20260506130537 67 186 0.0 0.0 0.00 0.00 0.00 69 1011.2
20260506125533 67 165 0.0 0.0 0.00 0.00 0.00 69 1011.2
20260506124528 67 163 0.9 1.7 0.00 0.00 0.00 69 1011.3
20260506123523 66 177 0.9 0.9 0.00 0.00 0.00 70 1011.3
20260506122523 66 182 0.0 0.0 0.00 0.00 0.00 71 1011.3
20260506121519 66 203 0.0 0.0 0.00 0.00 0.00 70 1011.4
20260506120519 66 165 0.9 1.7 0.00 0.00 0.00 71 1011.5
20260506115520 66 161 1.7 3.5 0.00 0.00 0.00 71 1011.6
20260506114515 66 129 0.0 0.9 0.00 0.00 0.00 71 1011.5
20260506113511 66 165 0.0 0.9 0.00 0.00 0.00 71 1011.4
20260506112510 66 202 0.0 0.9 0.00 0.00 0.00 70 1011.4
20260506111506 65 183 1.7 2.6 0.00 0.00 0.00 71 1011.4
20260506110506 64 178 0.0 0.0 0.00 0.00 0.00 72 1011.4
20260506105505 64 193 0.9 0.9 0.00 0.00 0.00 73 1011.2
20260506104500 64 190 0.0 0.0 0.00 0.00 0.00 73 1011.2
20260506103501 64 193 0.9 0.9 0.00 0.00 0.00 73 1011.0
20260506102456 64 191 0.0 0.9 0.00 0.00 0.00 74 1010.8
20260506101455 64 174 0.0 0.9 0.00 0.00 0.00 75 1010.9
20260506100451 64 148 0.9 0.9 0.00 0.00 0.00 75 1011.2
20260506095447 64 163 0.9 0.9 0.00 0.00 0.00 75 1011.2
20260506094447 64 187 0.9 0.9 0.00 0.00 0.00 75 1011.2
20260506093442 64 202 0.0 0.9 0.00 0.00 0.00 75 1011.2
20260506092437 64 134 2.6 3.5 0.00 0.00 0.00 76 1011.2
20260506091432 64 220 0.9 1.7 0.00 0.00 0.00 76 1011.3
20260506090432 65 175 0.9 0.9 0.00 0.00 0.00 76 1011.1